Tracking 31027 objects as of 19-Jul-2025
HD Live streaming from Space Station
objects crossing your sky now

SKYSAT C13

Track SKYSAT C13 now!
10-day predictions


NORAD ID: 43802
Int'l Code: 2018-099AW
Perigee: 411.2 km
Apogee: 422.2 km
Inclination: 97.0 °
Period: 92.8 minutes
Semi major axis: 6787 km
RCS: Unknown
Launch date: December 3, 2018
Source: United States (US)
Launch site: AIR FORCE WESTERN TEST RANGE (AFWTR)
Your satellite tracking list
FENGYUN 1C DEB
Track 1 satellite(s)




NASA's NSSDC Master Catalog

Two Line Element Set (TLE):
1 43802U 18099AW  25199.40745173  .00018831  00000-0  30875-3 0  9998
2 43802  96.9846 245.7677 0008074  45.2961 314.8949 15.52458305370595
Source of the keplerian elements: AFSPC